Wind_Speed
9 9 9 10 11 11 12 12 13 13 13 13 14 15 15 16 17 17 18 19 20 20 20 21 22 23 23 23 24 24 25 25 26 26 27 28 29 30
9 9 9 9 10 10 10 11 11 12 12 13 14 15 16 17 17 18 19 19 20 21 21 22 22 23 23 24 24 25 25 26 27 28 28 28 29 31
10 10 10 10 11 11 12 12 13 13 13 13 14 16 16 17 18 19 20 20 21 21 21 22 22 23 24 25 26 27 27 28 29 29 29 30 31 31
11 11 11 11 12 13 13 14 14 14 15 16 16 17 18 19 20 20 20 21 21 22 22 22 23 24 25 26 27 28 29 30 30 30 30 30 31 32
11 11 12 12 13 13 14 14 15 15 16 17 18 18 19 19 20 21 21 22 22 22 23 24 24 25 26 28 28 29 30 30 30 31 31 32 32 33
12 12 12 13 13 13 14 15 15 16 17 18 19 19 19 20 21 22 23 24 24 25 26 26 25 26 27 29 29 29 30 31 31 32 33 33 34 34
13 13 13 13 14 14 15 16 16 17 18 19 19 20 21 22 22 23 23 24 25 26 27 27 27 28 28 29 29 30 31 32 32 33 33 34 34 35
14 14 13 14 15 16 16 17 17 18 19 20 20 21 22 23 23 24 25 25 26 27 28 29 29 29 30 30 31 32 32 33 34 34 35 35 35 35
14 14 14 15 16 17 18 18 19 20 21 21 22 22 23 24 24 26 26 27 28 28 29 29 30 31 32 33 33 34 34 35 35 34 34 35 35 36
15 15 16 16 17 18 19 20 21 21 22 22 23 23 24 24 25 26 27 28 28 29 30 31 31 32 32 33 33 34 34 35 35 34 34 34 35 35
16 17 17 18 19 20 20 21 21 21 22 23 24 24 25 26 27 27 28 29 30 30 31 31 32 32 32 33 33 34 34 34 34 34 34 35 35 34
17 18 18 19 20 20 21 22 22 23 24 24 25 26 27 27 28 29 29 29 30 31 31 31 32 32 33 33 34 34 34 34 34 34 34 34 34 34
17 18 19 20 21 21 22 23 24 25 25 26 27 28 28 29 29 30 30 30 31 31 32 32 33 33 34 34 34 34 34 34 34 34 34 35 35 34
18 19 20 21 21 22 23 24 25 26 26 27 28 29 29 30 31 31 31 31 31 32 33 33 34 34 34 35 34 34 33 33 33 34 34 34 34 33
20 21 21 21 22 23 24 24 25 26 28 28 29 29 30 31 32 32 32 32 33 34 35 35 35 34 34 34 34 34 33 33 33 32 32 33 33 32
21 22 22 23 23 24 25 26 27 28 29 29 30 30 31 32 33 33 33 33 34 35 35 35 35 35 35 34 34 34 34 33 32 32 31 31 31 30
22 23 23 24 24 25 26 28 29 30 30 31 31 32 32 33 33 34 34 34 35 35 35 35 35 35 34 34 34 34 33 33 32 31 30 30 30 29
23 24 24 25 26 27 28 29 30 31 32 32 32 33 33 33 34 35 35 35 35 34 34 34 34 34 34 34 34 33 33 32 31 30 30 29 29 29
25 25 26 26 27 28 29 30 31 32 33 33 33 34 34 35 35 36 36 35 35 35 35 34 34 34 34 33 33 32 31 30 29 29 29 29 29 29
26 26 27 27 28 29 30 31 32 33 33 33 34 35 35 35 36 36 36 35 35 35 34 34 34 33 33 32 31 31 31 30 29 29 29 29 29 28
26 27 28 29 30 31 31 32 33 33 34 34 35 35 36 36 36 36 36 35 35 35 34 34 34 33 33 32 31 30 30 30 29 29 29 29 28 28
27 28 29 30 31 32 33 33 34 34 35 35 36 36 36 37 36 36 36 35 35 35 34 34 33 32 32 32 31 30 30 30 30 30 29 29 28 27
28 30 31 32 32 33 34 34 35 36 36 36 37 37 37 37 36 36 36 35 35 34 34 33 32 31 32 31 31 30 30 30 29 29 29 29 28 28
Wind_Direction
299 297 300 303 302 302 301 299 295 290 286 283 281 282 284 285 285 286 286 284 284 282 284 285 285 286 286 284 284 285 285 286 286 286 285 284 282 281
302 304 304 305 309 308 306 304 304 299 292 288 286 282 283 285 286 285 286 286 285 284 284 285 285 286 286 286 286 286 286 287 287 287 285 284 284 282
304 302 302 300 301 303 302 299 298 299 301 296 291 290 288 288 288 286 285 286 288 287 286 285 285 286 286 287 288 288 288 288 288 287 285 285 285 284
308 305 303 301 302 304 301 298 298 298 300 299 297 294 291 291 290 290 290 289 288 288 288 287 287 288 287 287 287 289 290 290 290 288 287 287 286 285
309 308 304 301 302 304 303 301 301 300 300 300 298 299 296 293 293 293 291 289 289 289 289 289 289 289 288 288 289 290 290 290 289 288 288 287 287 286
310 309 308 308 307 306 307 305 304 303 302 303 300 300 300 297 297 294 292 290 290 290 290 290 290 291 291 291 291 292 292 291 289 288 288 287 287 287
308 310 309 309 309 310 310 312 310 307 306 306 304 304 302 299 299 298 296 294 293 292 293 293 292 292 293 293 293 293 293 293 292 291 290 289 288 288
306 308 308 308 310 311 312 312 311 310 309 308 308 306 305 302 299 298 296 295 296 296 296 295 294 294 294 294 294 294 294 293 292 291 290 289 289 290
306 307 309 311 312 312 311 310 309 310 309 309 309 309 306 303 300 299 298 295 294 295 295 295 294 294 295 295 294 294 294 293 292 292 291 291 291 291
307 307 309 311 313 313 313 313 311 311 309 309 309 309 307 305 305 303 302 300 298 296 296 295 295 295 295 295 296 296 296 295 295 294 294 293 293 293
307 307 309 312 314 314 314 313 313 313 313 312 312 311 309 308 307 306 304 303 301 300 299 300 300 299 298 296 296 297 297 296 296 296 295 295 294 294
308 307 309 312 314 314 315 316 316 316 314 313 312 311 310 310 309 308 307 305 303 303 302 301 301 300 299 298 298 297 297 297 296 296 296 296 296 295
313 314 313 313 313 314 316 317 317 317 316 315 314 313 311 310 309 309 307 306 305 305 304 303 302 301 301 301 300 300 298 298 297 298 298 297 296 295
314 314 314 315 315 316 317 318 318 318 318 316 315 314 313 312 310 309 308 307 306 306 306 305 304 303 303 303 302 302 301 300 299 299 299 299 297 296
312 313 313 314 315 316 317 318 318 318 318 317 316 315 314 313 312 310 308 308 307 307 307 306 305 304 304 303 302 302 301 300 300 299 299 298 298 297
310 312 313 313 313 315 317 317 318 318 318 317 317 316 316 316 315 313 311 310 309 309 308 307 307 307 306 305 303 302 301 300 300 300 300 299 299 298
307 309 311 312 312 313 315 316 317 317 317 317 317 317 317 316 316 314 312 311 310 310 309 308 308 308 308 306 304 303 302 301 301 301 301 300 299 299
305 308 309 310 311 313 314 315 316 317 317 317 316 316 317 316 316 315 313 312 311 311 310 309 309 309 308 307 305 304 302 302 302 301 301 301 300 300
304 306 307 309 310 311 312 313 314 315 316 316 316 316 316 316 316 315 314 313 312 312 312 311 310 309 309 307 305 303 302 302 302 302 302 302 301 301
302 304 306 308 309 310 311 313 314 315 315 315 315 315 315 315 315 315 314 313 313 312 312 311 310 310 309 308 306 304 302 301 302 302 302 301 302 301
301 303 305 307 308 309 310 312 313 314 314 314 314 315 315 315 315 315 315 314 313 312 311 311 310 310 309 308 306 304 303 302 303 302 301 301 300 299
300 302 304 305 307 308 309 311 312 313 314 314 314 314 314 314 314 314 314 314 313 312 312 311 311 309 309 308 307 305 303 302 302 302 302 301 300 298
300 301 302 303 304 306 308 310 312 313 313 313 313 313 313 313 314 314 314 313 313 313 312 312 311 310 309 309 308 306 305 303 302 301 302 302 301 299
Height
5883 5882 5881 5879 5877 5875 5873 5872 5870 5869 5868 5866 5865 5864 5862 5861 5860 5858 5857 5855 5853 5851 5850 5848 5847 5845 5843 5841 5839 5837 5835 5833 5831 5829 5827 5825 5823 5822
5880 5879 5878 5876 5874 5872 5870 5868 5867 5865 5864 5863 5861 5860 5858 5857 5855 5853 5851 5850 5848 5846 5844 5842 5840 5839 5836 5835 5833 5831 5828 5826 5824 5822 5819 5817 5815 5813
5878 5876 5875 5873 5871 5869 5867 5865 5864 5862 5861 5859 5857 5856 5854 5852 5850 5848 5846 5844 5842 5840 5838 5836 5834 5832 5830 5828 5826 5824 5821 5819 5816 5814 5811 5809 5807 5805
5875 5873 5872 5870 5868 5867 5864 5862 5861 5859 5857 5855 5853 5851 5849 5847 5845 5843 5840 5838 5837 5835 5832 5830 5828 5825 5823 5821 5819 5816 5814 5811 5808 5806 5803 5801 5798 5796
5872 5870 5869 5867 5865 5863 5861 5859 5857 5855 5853 5851 5848 5846 5844 5841 5839 5837 5835 5832 5830 5828 5826 5823 5821 5818 5816 5814 5811 5808 5805 5803 5800 5797 5795 5792 5789 5787
5869 5867 5865 5864 5862 5860 5858 5856 5853 5851 5849 5846 5844 5841 5839 5836 5834 5831 5829 5826 5824 5821 5819 5816 5814 5811 5809 5806 5803 5800 5797 5794 5791 5788 5785 5783 5780 5777
5866 5864 5862 5860 5859 5856 5854 5852 5849 5847 5844 5842 5839 5836 5834 5831 5829 5826 5823 5820 5817 5814 5812 5809 5806 5803 5800 5797 5794 5791 5788 5785 5782 5779 5776 5773 5770 5767
5863 5861 5859 5857 5855 5853 5850 5848 5845 5843 5840 5837 5834 5831 5828 5826 5823 5819 5816 5813 5810 5807 5804 5800 5798 5794 5791 5788 5785 5782 5779 5775 5772 5769 5766 5762 5759 5756
5859 5857 5855 5853 5851 5849 5846 5844 5841 5838 5835 5832 5829 5826 5823 5820 5816 5813 5809 5806 5803 5800 5796 5793 5789 5786 5782 5779 5776 5772 5769 5765 5762 5758 5755 5752 5748 5745
5855 5853 5851 5849 5846 5844 5842 5839 5836 5833 5830 5827 5824 5820 5817 5813 5810 5806 5802 5799 5796 5792 5788 5785 5781 5777 5774 5770 5766 5762 5759 5755 5752 5748 5745 5742 5738 5735
5851 5849 5847 5845 5842 5839 5836 5834 5831 5827 5824 5821 5817 5814 5810 5806 5803 5799 5795 5791 5787 5784 5780 5776 5772 5768 5765 5761 5757 5753 5749 5746 5742 5739 5735 5731 5728 5725
5847 5845 5843 5840 5837 5834 5831 5828 5825 5822 5818 5815 5811 5807 5803 5799 5795 5791 5787 5783 5779 5776 5772 5768 5764 5760 5756 5752 5748 5744 5740 5736 5732 5729 5725 5722 5718 5715
5843 5841 5838 5835 5832 5829 5826 5823 5819 5816 5812 5808 5804 5800 5796 5792 5788 5784 5780 5776 5772 5767 5763 5759 5755 5751 5747 5743 5739 5734 5731 5727 5723 5719 5716 5712 5709 5705
5839 5836 5834 5831 5827 5824 5821 5817 5814 5810 5806 5802 5798 5794 5789 5785 5781 5776 5772 5768 5763 5759 5755 5750 5746 5742 5738 5734 5729 5725 5721 5717 5714 5710 5706 5703 5699 5696
5834 5832 5829 5826 5822 5819 5816 5812 5808 5804 5800 5796 5791 5787 5782 5778 5773 5769 5764 5760 5755 5751 5746 5742 5737 5733 5729 5724 5720 5716 5712 5709 5705 5701 5697 5693 5690 5687
5829 5827 5824 5820 5817 5814 5810 5806 5802 5798 5794 5789 5785 5780 5775 5770 5766 5761 5756 5751 5747 5742 5737 5733 5728 5724 5719 5715 5711 5707 5703 5699 5696 5692 5688 5685 5681 5678
5824 5821 5818 5815 5811 5808 5804 5800 5796 5791 5787 5782 5778 5773 5768 5763 5758 5753 5748 5743 5739 5734 5729 5724 5719 5715 5710 5706 5702 5698 5694 5690 5686 5683 5680 5676 5673 5670
5818 5815 5812 5809 5805 5801 5797 5793 5789 5784 5780 5775 5770 5766 5761 5756 5750 5745 5740 5735 5730 5725 5720 5716 5711 5706 5702 5697 5693 5689 5685 5681 5677 5674 5671 5668 5664 5661
5812 5809 5806 5802 5798 5795 5791 5786 5782 5777 5773 5768 5763 5758 5753 5748 5742 5737 5732 5727 5722 5717 5712 5707 5702 5698 5693 5689 5684 5680 5677 5673 5669 5666 5662 5659 5656 5653
5805 5802 5799 5795 5792 5788 5784 5779 5775 5770 5765 5760 5755 5750 5745 5740 5735 5729 5724 5719 5713 5708 5704 5699 5694 5689 5685 5681 5676 5672 5668 5665 5661 5658 5654 5651 5648 5645
5798 5795 5792 5788 5784 5780 5776 5772 5767 5762 5757 5752 5747 5742 5737 5732 5726 5721 5716 5710 5705 5700 5695 5691 5686 5681 5677 5672 5668 5664 5660 5657 5653 5650 5647 5643 5640 5637
5791 5788 5784 5781 5777 5773 5768 5764 5759 5754 5749 5744 5739 5734 5729 5724 5718 5713 5707 5702 5697 5692 5687 5682 5677 5673 5669 5664 5660 5656 5652 5649 5645 5641 5638 5635 5632 5629
5783 5780 5776 5772 5768 5764 5760 5755 5751 5746 5741 5736 5731 5725 5720 5715 5710 5704 5699 5694 5689 5684 5679 5674 5669 5665 5660 5656 5652 5648 5644 5641 5637 5634 5630 5626 5624 5621